Showing default

HULIANWANG DIGUI-149, 67525

Orbit data source: Space-Track

HULIANWANG DIGUI-149, 67525 is a payload satellite owned by Zhongguo Xingwang (CN) in LEO that was launched on Mon, 19 Jan 2026 UTC via a CHANG ZHENG 12 launch vehicle from the Wenchang Satellite Launch Center (WSC). Payload-class satellites include a variety of spacecraft equipped with specific instruments for various scientific and technological missions. These include communications satellites like Starlink; space stations such as the ISS; scientific satellites like the Hubble; Earth observation satellites from companies like Planet Labs, Umbra, and HawkEye 360; GPS; miniature CubeSats for education and research; and military/defense satellites.

Loading next visibility...
Identifier
67525, 2026-013D
Orbit
LEO
Country
Flag of CNCN / PRC
Related business
Manufacturer
YINNT
Mission
Operational Civil Communications
Bus & Motor
XINGWANG Y, Unknown motor
Mass
~800 kg wet, ~800 kg dry
Launch date (UTC)
2026-01-19 (5 months ago)
Launch vehicle
CHANG ZHENG 12
Launch site
Wenchang Satellite Launch Center (WSC)
Object type
Payload
Rocket body
Debris
Shape & HBR
Box + 2 Pan, 2.1 m
Radar Cross Section
5.935 m², Large (>1 m²)

Expand to show TLE details & history
Last TLE update: 6 hours ago

TLE from 6 hours ago
0 HULIANWANG DIGUI-149
1 67525U 26013D   26163.84873459 -.00000082  00000-0  91276-4 0  9993
2 67525  50.0097  11.2418 0001306 102.4904 257.6114 13.29329186 19476
Epoch: 2026-06-12T20:22Z
TLE epoch observation values (Epoch: 2026-06-12T20:22:10.668Z)
Latitude
-0.00005°
Longitude
164.52502°
Altitude
1,150.013 km
Speed
7.279 km/s
True Right ascension
00h 44m 58s
True Declination
0° 00' 00"
Sunlit
Object was in daylight at epoch
Visualization orbit readout
Latitude
Unknown
Longitude
Unknown
Altitude
Unknown
Speed
Unknown
Apparent Right ascension
Unknown
Apparent Declination
Unknown
Sunlit
N/A
Visualization observer readout
Local Sidereal Time
12:49:04
Azimuth
Unknown
Elevation
Unknown
Doppler factor
Unknown
Orbital elements
Apogee altitude
1,150.982 km
Perigee altitude
1,149.015 km
Semi-major axis
7,528.135 km
Eccentricity
0.00013
Inclination
50.0097°
RAAN
11.2418°
Arg. of periapsis
102.4904°
True anomaly
257.59678°
Mean anomaly
257.6114°
Eccentric anomaly
257.60409°
Mean motion
3.32286 °/min
Orbital period
108.34 mins
BSTAR
0.000091276
Loading maneuver chart data...
Computing Atmospheric mass density...
Loading historical data...
Loading historical data...
Loading historical data...
Loading historical data...
Loading historical data...
Loading historical data...
Loading historical data...

Documentation

Showing up to 5 results
|